{"data":{"norad_id":59637,"intl_designator":"2024-082G","name":"STARLINK-31791","alt_names":[],"object_type":"PAYLOAD","status":"ACTIVE","operator":null,"country":"US","launch_date":"2024-05-03","launch_site_code":"AFETR","launch_vehicle":null,"mission":null,"orbit_class":"UNKNOWN","rcs_meters":null,"size_class":null,"mass_kg":null,"dimensions":null,"purposes":["comms"],"wikipedia_slug":null,"has_3d_model":false,"image_url":null,"decayed_at":null,"tle_current":{"epoch":"2026-05-25T02:52:38.756928Z","epoch_age_seconds":71468,"freshness":"FRESH","line1":"1 59637U 24082G   26145.11989302 -.00001763  00000+0 -54527-4 0  9992","line2":"2 59637  43.0042  67.9394 0001227 287.7489  72.3229 15.27596321116509","mean_motion":15.27596321,"eccentricity":0.0001227,"inclination_deg":43.0042,"raan_deg":67.9394,"arg_perigee_deg":287.7489,"mean_anomaly_deg":72.3229,"bstar":-5.4527e-5,"rev_number":11650,"period_min":94.265741557779,"perigee_km":482.15836399175,"apogee_km":483.8420870669,"semimajor_km":6861.1372255293,"source":"CELESTRAK","updated_at":"2026-05-25T13:38:19.013863Z"}}}